Weather in Navkat

Tajikistan     40°09′09″N   69°22′31″E
temp.,
°C
wind,
m/s
gust,
m/s
humid.,
%
clouds,
%
prec.,
mm/h
press.,
hPa
HPBL,
m
23 april, fri
fri2323:00+13wsw11480 0.0 102411
02:00+12ese11510 0.0 102310
05:00+11e22490 0.0 102311
08:00+15e79391 0.0 1023595
11:00+20e782863 0.0 10231237
14:00+23ene552029 0.0 10211417
17:00+23ene22185 0.0 10191447
20:00+17ne11330 0.0 101911
24 april, sat
sat2423:00+16ese22295 0.0 101911
02:00+15e33335 0.0 101826
05:00+14e4636100 0.0 101878
08:00+17e7113458 0.0 1019519
11:00+22e7723100 0.0 10181009
14:00+24ene3317100 0.0 10181102
17:00+24nw4422100 0.0 10181303
20:00+19w0134100 0.0 101911
25 april, sun
sun2523:00+17ssw0136100 0.0 101911
02:00+16nw1136100 0.0 101911
05:00+16e223082 0.0 101911
08:00+20e58315 0.0 1020406
11:00+25e6720100 0.0 10191010
14:00+27ene331599 0.0 10171472
17:00+27nw3319100 0.0 10171350
20:00+22wnw2222100 0.0 101811
26 april, mon
mon2623:00+20sw2223100 0.0 101811
02:00+18wsw223080 0.0 101711
05:00+17ene0036100 0.0 101711
08:00+21e4629100 0.0 1018315
11:00+26e6822100 0.0 1016989
14:00+29e6716100 0.0 10141492
17:00+29ne241525 0.0 10141502
20:00+22nnw113111 0.0 101311
27 april, tue
tue2723:00+20sse113210 0.0 101311
02:00+19e222952 0.0 101211
05:00+18e333279 0.0 101222
08:00+23e592859 0.0 1013381
11:00+28e79210 0.0 1012948
14:00+32e67160 0.0 10101309
17:00+32ene33140 0.0 10091415
20:00+25wnw222645 0.0 101011